Погода в Сажино

Россия / Омская область     55˚53′30″N   72˚23′22″E
темп.,
°C
ветер,
м/с
пор.,
м/с
влажн.,
%
обл.,
%
осадки,
мм/ч
давл.,
гПа
погр.,
м
17 января, вс
вс1700:00−10˚ю51187100 0.0 1007321
03:00−9˚юз61289100 0.0 1004400
06:00−8˚зюз61392100 0.1 1005576
09:00−10˚зюз6139396 0.0 1006333
12:00−10˚зюз6139175 0.0 1008381
15:00−10˚юз612900 0.0 1008374
18:00−9˚ююз8168644 0.0 1007537
21:00−9˚юз8159096 0.1 1005922
18 января, пн
пн1800:00−9˚зюз8159198 0.2 1004889
03:00−10˚зюз71489100 0.1 1006718
06:00−14˚зюз71591100 0.1 1008558
09:00−17˚з71493100 0.1 1012469
12:00−17˚з51094100 0.1 1015413
15:00−18˚з489358 0.0 1017311
18:00−21˚юз349729 0.0 101845
21:00−22˚юз34970 0.0 101861
19 января, вт
вт1900:00−23˚юз479618 0.0 101893
03:00−24˚юз47950 0.0 101894
06:00−24˚юз34960 0.0 101773
09:00−25˚зюз349631 0.0 101769
12:00−22˚з359564 0.0 1018190
15:00−21˚зсз249592 0.0 1018208
18:00−25˚ссз229756 0.0 101920
21:00−25˚ссв339723 0.0 102041
20 января, ср
ср2000:00−24˚св379661 0.0 1020177
03:00−27˚св489398 0.0 1021181
06:00−27˚всв489098 0.0 1021225
09:00−26˚всв5890100 0.0 1021250
12:00−26˚всв5798100 0.4 1021247
15:00−24˚всв4698100 1.1 1020254
18:00−25˚всв3698100 1.4 1021213
21:00−26˚всв2498100 0.2 1021107
21 января, чт
чт2100:00−28˚св229898 0.2 102219
03:00−30˚ссв239986 0.0 102219
06:00−31˚св239861 0.0 102319
09:00−32˚св33989 0.0 102228
12:00−29˚всв249655 0.0 1022153
15:00−27˚св3595100 0.0 1020225
18:00−29˚св3497100 0.0 101881
21:00−29˚св3597100 0.0 1017104